Вернуться в каталог

SL-8 DEB

АктивенLEO
NORAD 15490·DEBRIS·🇷🇺 Russia

Запущен Jan 17, 1985 с Plesetsk Cosmodrome

Loading…

Ближайшие Пролёты (ближайшие 24 часа)

TLE

СвежийSource: Space-Track

Эпоха: Sep 13, 2026, 04:13 UTC

1 15490U 85006C   26256.17579758  .00001285  00000-0  24381-3 0  9995
2 15490  74.0311 165.0532 0004465 265.6825  94.3833 14.65297396196460

Отслеживайте SL-8 DEB в реальном времени с AllMySat

Download on the App Store